If you wish to contribute or participate in the discussions about articles you are invited to join SKYbrary as a registered user

 Actions

Arequipa/Rodríguez Ballón International

From SKYbrary Wiki

SPQU
Airport
ICAO: SPQU – IATA: AQP
Summary
Name Arequipa/Rodríguez Ballón International
Region South America and Caribbean
Territory Peru PE.gif
Location Ro Seco, Arequipa
Serving Arequipa
Elevation 2,560.32 m
8,400 ft2,560.32 m
Coordinates 16° 20' 25.00" S, 71° 34' 22.00" W
Runways
Designator Length Width Surface ROPS
9/27 2980 m9,776.903 ft
45 m147.638 ft
ASP /


METAR
Observation SPQU 222210Z 27006KT 9999 SCT100 16/03 Q1027
Station Arequipa
Date/Time 22 May 2019 22:10:00
Wind direction 270°
Wind speed 06 kts
Lowest cloud amount scattered clouds
Temperature 16°C
Dew point 3°C
Humidity 41%
QNH 1027 hPa
Weather condition n/a

Rodríguez Ballón International Airport is an airport serving Peru's second largest city, Arequipa. This airport and Cusco's Alejandro Velasco Astete International Airport are the main air hubs in southern Peru.

Climatology

Cool Desert climate (Köppen climate classification BWk).

Maps

Terrain

Loading map...

Airport Layout

Loading map...


Accidents & Serious Incidents at or in vicinity of SPQU

None on SKYbrary